START_TIME,STEP,MOV.,AL01,t_acc.,AL02,t_acc.,E37,t_acc.,H21,t_acc.
1980-11-14 00:00:22.860 ,3,0,0.,24.0,0.,24.0,0.,24.0,0.,24.0
1980-11-14 00:00:46.860 ,4,1,0.,24.0,0.,24.0,0.,24.0,0.,24.0
1980-11-14 00:01:10.860 ,4,0,0.,24.0,0.,24.0,0.,24.0,0.,24.0
1980-11-14 00:01:34.860 ,5,1,0.,24.0,0.,24.0,0.,24.0,0.,24.0
1980-11-14 00:01:58.860 ,5,0,0.,24.0,0.,24.0,0.,24.0,0.,24.0
1980-11-14 00:02:22.860 ,6,1,0.,24.0,0.,24.0,0.,24.0,0.,24.0
1980-11-14 00:02:46.860 ,6,0,0.,24.0,0.,24.0,0.,24.0,0.,24.0
1980-11-14 00:03:10.860 ,7,1,3.,24.0,0.,24.0,0.,24.0,0.,24.0
1980-11-14 00:03:34.860 ,7,0,11.,24.0,0.,24.0,0.,24.0,0.,24.0
1980-11-14 00:03:58.860 ,7,1,8.,24.0,0.,24.0,0.,24.0,0.,24.0
1980-11-14 00:04:22.860 ,7,0,5.,24.0,0.,24.0,0.,24.0,0.,24.0
1980-11-14 00:04:46.860 ,6,1,5.,24.0,0.,24.0,0.,24.0,0.,24.0
1980-11-14 00:05:10.860 ,6,0,0.,24.0,0.,24.0,0.,24.0,0.,24.0
1980-11-14 00:05:34.860 ,5,1,0.,24.0,0.,24.0,0.,24.0,0.,24.0
1980-11-14 00:05:58.860 ,5,0,0.,24.0,0.,24.0,0.,24.0,0.,24.0
1980-11-14 00:06:22.860 ,4,1,0.,24.0,0.,24.0,0.,24.0,0.,24.0
1980-11-14 00:06:46.860 ,4,0,0.,24.0,0.,24.0,0.,24.0,0.,24.0
1980-11-14 00:07:10.860 ,3,1,0.,24.0,0.,24.0,0.,24.0,0.,24.0
1980-11-14 00:07:34.860 ,3,0,0.,24.0,0.,24.0,0.,24.0,0.,24.0
1980-11-14 00:07:58.860 ,2,1,0.,24.0,0.,24.0,0.,24.0,0.,24.0
1980-11-14 00:08:22.860 ,2,0,0.,24.0,0.,24.0,0.,24.0,0.,24.0
1980-11-14 00:08:46.860 ,1,1,0.,24.0,0.,24.0,0.,24.0,0.,24.0
1980-11-14 00:09:10.860 ,1,0,0.,24.0,0.,24.0,0.,24.0,0.,24.0
1980-11-14 00:09:34.860 ,0,1,0.,24.0,0.,24.0,0.,24.0,0.,24.0
1980-11-14 00:09:58.860 ,0,0,0.,24.0,0.,24.0,0.,24.0,0.,24.0
1980-11-14 00:10:22.860 ,0,1,0.,24.0,0.,24.0,0.,24.0,0.,24.0
1980-11-14 00:10:46.860 ,0,0,0.,24.0,0.,24.0,0.,24.0,0.,24.0
1980-11-14 00:11:10.860 ,1,1,0.,24.0,0.,24.0,0.,24.0,0.,24.0
1980-11-14 00:11:34.860 ,1,0,0.,24.0,0.,24.0,0.,24.0,0.,24.0
1980-11-14 00:11:58.860 ,2,1,0.,24.0,0.,24.0,0.,24.0,0.,24.0
1980-11-14 00:12:22.860 ,2,0,0.,24.0,0.,24.0,0.,24.0,0.,24.0
1980-11-14 00:12:46.860 ,3,1,0.,24.0,0.,24.0,0.,24.0,0.,24.0
1980-11-14 00:13:10.860 ,3,0,0.,24.0,0.,24.0,0.,24.0,0.,24.0
1980-11-14 00:13:34.860 ,4,1,0.,24.0,0.,24.0,0.,24.0,0.,24.0
1980-11-14 00:13:58.860 ,4,0,0.,24.0,0.,24.0,0.,24.0,0.,24.0
1980-11-14 00:14:22.860 ,5,1,0.,24.0,0.,24.0,0.,24.0,0.,24.0
1980-11-14 00:14:46.860 ,5,0,0.,24.0,0.,24.0,0.,24.0,0.,24.0
1980-11-14 00:15:10.860 ,6,1,0.,24.0,0.,24.0,0.,24.0,0.,24.0
1980-11-14 00:15:34.860 ,6,0,0.,24.0,0.,24.0,0.,24.0,0.,24.0
1980-11-14 00:15:58.860 ,7,1,1.,24.0,0.,24.0,0.,24.0,0.,24.0
1980-11-14 00:16:22.860 ,7,0,16.,24.0,0.,24.0,0.,24.0,0.,24.0
1980-11-14 00:16:46.860 ,7,1,9.,24.0,0.,24.0,0.,24.0,0.,24.0
1980-11-14 00:17:10.860 ,7,0,9.,24.0,0.,24.0,0.,24.0,0.,24.0
1980-11-14 00:17:34.860 ,6,1,7.,24.0,0.,24.0,0.,24.0,0.,24.0
1980-11-14 00:17:58.860 ,6,0,0.,24.0,0.,24.0,0.,24.0,0.,24.0
1980-11-14 00:18:22.860 ,5,1,0.,24.0,0.,24.0,0.,24.0,0.,24.0
1980-11-14 00:18:46.860 ,5,0,0.,24.0,0.,24.0,0.,24.0,0.,24.0
1980-11-14 00:19:10.860 ,4,1,0.,24.0,0.,24.0,0.,24.0,0.,24.0
1980-11-14 00:19:34.860 ,4,0,0.,24.0,0.,24.0,0.,24.0,0.,24.0
1980-11-14 00:19:58.860 ,3,1,0.,24.0,0.,24.0,0.,24.0,0.,24.0
1980-11-14 00:20:22.860 ,3,0,0.,24.0,0.,24.0,0.,24.0,0.,24.0
1980-11-14 00:20:46.860 ,2,1,0.,24.0,0.,24.0,0.,24.0,0.,24.0
1980-11-14 00:21:10.860 ,2,0,0.,24.0,0.,24.0,0.,24.0,0.,24.0
1980-11-14 00:21:34.860 ,1,1,0.,24.0,0.,24.0,0.,24.0,0.,24.0
1980-11-14 00:21:58.860 ,1,0,0.,24.0,0.,24.0,0.,24.0,0.,24.0
1980-11-14 00:22:22.860 ,0,1,0.,24.0,0.,24.0,0.,24.0,0.,24.0
1980-11-14 00:22:46.860 ,0,0,0.,24.0,0.,24.0,0.,24.0,0.,24.0
1980-11-14 00:23:10.860 ,0,1,0.,24.0,0.,24.0,0.,24.0,0.,24.0
1980-11-14 00:23:34.860 ,0,0,0.,24.0,0.,24.0,0.,24.0,0.,24.0
1980-11-14 00:23:58.860 ,1,1,0.,24.0,0.,24.0,0.,24.0,0.,24.0
1980-11-14 00:24:22.860 ,1,0,0.,24.0,0.,24.0,0.,24.0,0.,24.0
1980-11-14 00:24:46.860 ,2,1,0.,24.0,0.,24.0,0.,24.0,0.,24.0
1980-11-14 00:25:10.860 ,2,0,0.,24.0,0.,24.0,0.,24.0,0.,24.0
1980-11-14 00:25:34.860 ,3,1,0.,24.0,0.,24.0,0.,24.0,0.,24.0
1980-11-14 00:25:58.860 ,3,0,0.,24.0,0.,24.0,0.,24.0,0.,24.0
1980-11-14 00:26:22.860 ,4,1,0.,24.0,0.,24.0,0.,24.0,0.,24.0
1980-11-14 00:26:46.860 ,4,0,0.,24.0,0.,24.0,0.,24.0,0.,24.0
1980-11-14 00:27:10.860 ,5,1,0.,24.0,0.,24.0,0.,24.0,0.,24.0
1980-11-14 00:27:34.860 ,5,0,0.,24.0,0.,24.0,0.,24.0,0.,24.0
1980-11-14 00:27:58.860 ,6,1,0.,24.0,0.,24.0,0.,24.0,0.,24.0
1980-11-14 00:28:22.860 ,6,0,0.,24.0,0.,24.0,0.,24.0,0.,24.0
1980-11-14 00:28:46.860 ,7,1,3.,24.0,0.,24.0,0.,24.0,0.,24.0
1980-11-14 00:29:10.860 ,7,0,12.,24.0,0.,24.0,0.,24.0,0.,24.0
1980-11-14 00:29:34.860 ,7,1,7.,24.0,0.,24.0,0.,24.0,0.,24.0
1980-11-14 00:29:58.860 ,7,0,8.,24.0,1.,24.0,0.,24.0,0.,24.0
1980-11-14 00:30:22.860 ,6,1,9.,24.0,0.,24.0,0.,24.0,0.,24.0
1980-11-14 00:30:46.860 ,6,0,0.,24.0,0.,24.0,0.,24.0,0.,24.0
1980-11-14 00:31:10.860 ,5,1,0.,24.0,0.,24.0,0.,24.0,0.,24.0
1980-11-14 00:31:34.860 ,5,0,0.,24.0,0.,24.0,0.,24.0,0.,24.0
1980-11-14 00:31:58.860 ,4,1,0.,24.0,0.,24.0,0.,24.0,0.,24.0
1980-11-14 00:32:22.860 ,4,0,0.,24.0,0.,24.0,0.,24.0,0.,24.0
1980-11-14 00:32:46.860 ,3,1,0.,24.0,0.,24.0,0.,24.0,0.,24.0
1980-11-14 00:33:10.860 ,3,0,0.,24.0,0.,24.0,0.,24.0,0.,24.0
1980-11-14 00:33:34.860 ,2,1,0.,24.0,0.,24.0,0.,24.0,0.,24.0
1980-11-14 00:33:58.860 ,2,0,0.,24.0,0.,24.0,0.,24.0,0.,24.0
1980-11-14 00:34:22.860 ,1,1,0.,24.0,0.,24.0,0.,24.0,0.,24.0
1980-11-14 00:34:46.860 ,1,0,0.,24.0,0.,24.0,0.,24.0,0.,24.0
1980-11-14 00:35:10.860 ,0,1,0.,24.0,0.,24.0,0.,24.0,0.,24.0
1980-11-14 00:35:34.860 ,0,0,0.,24.0,0.,24.0,0.,24.0,0.,24.0
1980-11-14 00:35:58.860 ,0,1,0.,24.0,0.,24.0,0.,24.0,0.,24.0
1980-11-14 00:36:22.860 ,0,0,0.,24.0,0.,24.0,0.,24.0,0.,24.0
1980-11-14 00:36:46.860 ,1,1,0.,24.0,0.,24.0,0.,24.0,0.,24.0
1980-11-14 00:37:10.860 ,1,0,0.,24.0,0.,24.0,0.,24.0,0.,24.0
1980-11-14 00:37:34.860 ,2,1,0.,24.0,0.,24.0,0.,24.0,0.,24.0
1980-11-14 00:37:58.860 ,2,0,0.,24.0,0.,24.0,0.,24.0,0.,24.0
1980-11-14 00:38:22.860 ,3,1,0.,24.0,0.,24.0,0.,24.0,0.,24.0
1980-11-14 00:38:46.860 ,3,0,0.,24.0,0.,24.0,0.,24.0,0.,24.0
1980-11-14 00:39:10.860 ,4,1,0.,24.0,0.,24.0,0.,24.0,0.,24.0
1980-11-14 00:39:34.860 ,4,0,0.,24.0,0.,24.0,0.,24.0,0.,24.0
1980-11-14 00:39:58.860 ,5,1,0.,24.0,0.,24.0,0.,24.0,0.,24.0
1980-11-14 00:40:22.860 ,5,0,0.,24.0,0.,24.0,0.,24.0,0.,24.0
1980-11-14 00:40:46.860 ,6,1,0.,24.0,0.,24.0,0.,24.0,0.,24.0
1980-11-14 00:41:10.860 ,6,0,0.,24.0,0.,24.0,0.,24.0,0.,24.0
1980-11-14 00:41:34.860 ,7,1,5.,24.0,0.,24.0,0.,24.0,0.,24.0
1980-11-14 00:41:58.860 ,7,0,10.,24.0,0.,24.0,0.,24.0,0.,24.0
1980-11-14 00:42:22.860 ,7,1,11.,24.0,0.,24.0,0.,24.0,0.,24.0
1980-11-14 00:42:46.860 ,7,0,11.,24.0,1.,24.0,0.,24.0,0.,24.0
1980-11-14 00:43:10.860 ,6,1,12.,24.0,0.,24.0,0.,24.0,0.,24.0
1980-11-14 00:43:34.860 ,6,0,0.,24.0,0.,24.0,0.,24.0,0.,24.0
1980-11-14 00:43:58.860 ,5,1,0.,24.0,0.,24.0,0.,24.0,0.,24.0
1980-11-14 00:44:22.860 ,5,0,0.,24.0,0.,24.0,0.,24.0,0.,24.0
1980-11-14 00:44:46.860 ,4,1,0.,24.0,0.,24.0,0.,24.0,0.,24.0
1980-11-14 00:45:10.860 ,4,0,0.,24.0,0.,24.0,0.,24.0,0.,24.0
1980-11-14 00:45:34.860 ,3,1,0.,24.0,0.,24.0,0.,24.0,0.,24.0
1980-11-14 00:45:58.860 ,3,0,0.,24.0,0.,24.0,0.,24.0,0.,24.0
1980-11-14 00:46:22.860 ,2,1,0.,24.0,0.,24.0,0.,24.0,0.,24.0
1980-11-14 00:46:46.860 ,2,0,0.,24.0,0.,24.0,0.,24.0,0.,24.0
1980-11-14 00:47:10.860 ,1,1,0.,24.0,0.,24.0,0.,24.0,0.,24.0
1980-11-14 00:47:34.860 ,1,0,0.,24.0,0.,24.0,0.,24.0,0.,24.0
1980-11-14 00:47:58.860 ,0,1,0.,24.0,0.,24.0,0.,24.0,0.,24.0
1980-11-14 00:48:22.860 ,0,0,0.,24.0,0.,24.0,0.,24.0,0.,24.0
1980-11-14 00:48:46.860 ,0,1,2.,24.0,0.,24.0,0.,24.0,0.,24.0
1980-11-14 00:49:10.860 ,0,0,0.,24.0,0.,24.0,0.,24.0,0.,24.0
1980-11-14 00:49:34.860 ,1,1,0.,24.0,0.,24.0,0.,24.0,0.,24.0
1980-11-14 00:49:58.860 ,1,0,0.,24.0,0.,24.0,0.,24.0,0.,24.0
1980-11-14 00:50:22.860 ,2,1,0.,24.0,0.,24.0,0.,24.0,0.,24.0
1980-11-14 00:50:46.860 ,2,0,0.,24.0,0.,24.0,0.,24.0,0.,24.0
1980-11-14 00:51:10.860 ,3,1,0.,24.0,0.,24.0,0.,24.0,0.,24.0
1980-11-14 00:51:34.860 ,3,0,0.,24.0,0.,24.0,0.,24.0,0.,24.0
1980-11-14 00:51:58.860 ,4,1,0.,24.0,0.,24.0,0.,24.0,0.,24.0
1980-11-14 00:52:22.860 ,4,0,0.,24.0,0.,24.0,0.,24.0,0.,24.0
1980-11-14 00:52:46.860 ,5,1,0.,24.0,0.,24.0,0.,24.0,0.,24.0
1980-11-14 00:53:10.860 ,5,0,0.,24.0,0.,24.0,0.,24.0,0.,24.0
1980-11-14 00:53:34.860 ,6,1,0.,24.0,0.,24.0,0.,24.0,0.,24.0
1980-11-14 00:53:58.860 ,6,0,0.,24.0,0.,24.0,0.,24.0,0.,24.0
1980-11-14 00:54:22.860 ,7,1,5.,24.0,0.,24.0,0.,24.0,0.,24.0
1980-11-14 00:54:46.860 ,7,0,8.,24.0,0.,24.0,0.,24.0,0.,24.0
1980-11-14 00:55:10.860 ,7,1,6.,24.0,0.,24.0,0.,24.0,0.,24.0
1980-11-14 00:55:34.860 ,7,0,9.,24.0,0.,24.0,0.,24.0,0.,24.0
1980-11-14 00:55:58.860 ,6,1,9.,24.0,0.,24.0,0.,24.0,0.,24.0
1980-11-14 00:56:22.860 ,6,0,0.,24.0,0.,24.0,0.,24.0,0.,24.0
1980-11-14 00:56:46.860 ,5,1,0.,24.0,0.,24.0,0.,24.0,0.,24.0
1980-11-14 00:57:10.860 ,5,0,0.,24.0,0.,24.0,0.,24.0,0.,24.0
1980-11-14 00:57:34.860 ,4,1,1.,24.0,0.,24.0,0.,24.0,0.,24.0
1980-11-14 00:57:58.860 ,4,0,0.,24.0,0.,24.0,0.,24.0,0.,24.0
1980-11-14 00:58:22.860 ,3,1,0.,24.0,0.,24.0,0.,24.0,0.,24.0
1980-11-14 00:58:46.860 ,3,0,0.,24.0,0.,24.0,0.,24.0,0.,24.0
1980-11-14 00:59:10.860 ,2,1,0.,24.0,0.,24.0,0.,24.0,0.,24.0
1980-11-14 00:59:34.860 ,2,0,0.,24.0,0.,24.0,0.,24.0,0.,24.0
1980-11-14 00:59:58.860 ,1,1,0.,24.0,0.,24.0,0.,24.0,0.,24.0
1980-11-14 01:00:22.860 ,0,0,0.,24.0,0.,24.0,0.,24.0,0.,24.0
1980-11-14 01:01:04.860 ,0,0,,0,,0,,0,,0
1980-11-14 01:01:10.860 ,0,0,0.,24.0,0.,24.0,0.,24.0,0.,24.0
1980-11-14 01:01:34.860 ,0,1,0.,24.0,0.,24.0,0.,24.0,0.,24.0
1980-11-14 01:01:58.860 ,0,0,0.,24.0,0.,24.0,0.,24.0,0.,24.0
1980-11-14 01:02:22.860 ,1,1,0.,24.0,0.,24.0,0.,24.0,0.,24.0
1980-11-14 01:02:46.860 ,1,0,0.,24.0,0.,24.0,0.,24.0,0.,24.0
1980-11-14 01:03:10.860 ,2,1,0.,24.0,0.,24.0,0.,24.0,0.,24.0
1980-11-14 01:03:34.860 ,2,0,0.,24.0,0.,24.0,0.,24.0,0.,24.0
1980-11-14 01:03:58.860 ,3,1,0.,24.0,0.,24.0,0.,24.0,0.,24.0
1980-11-14 01:04:22.860 ,3,0,0.,24.0,0.,24.0,0.,24.0,0.,24.0
1980-11-14 01:04:46.860 ,4,1,0.,24.0,0.,24.0,0.,24.0,0.,24.0
1980-11-14 01:05:10.860 ,4,0,0.,24.0,0.,24.0,0.,24.0,0.,24.0
1980-11-14 01:05:34.860 ,5,1,1.,24.0,0.,24.0,0.,24.0,0.,24.0
1980-11-14 01:05:58.860 ,5,0,0.,24.0,0.,24.0,0.,24.0,0.,24.0
1980-11-14 01:06:22.860 ,6,1,0.,24.0,0.,24.0,0.,24.0,0.,24.0
1980-11-14 01:06:46.860 ,6,0,0.,24.0,0.,24.0,0.,24.0,0.,24.0
1980-11-14 01:07:10.860 ,7,1,2.,24.0,0.,24.0,0.,24.0,0.,24.0
1980-11-14 01:07:34.860 ,7,0,11.,24.0,0.,24.0,0.,24.0,0.,24.0
1980-11-14 01:07:58.860 ,7,1,5.,24.0,0.,24.0,0.,24.0,0.,24.0
1980-11-14 01:08:22.860 ,7,0,12.,24.0,0.,24.0,0.,24.0,0.,24.0
1980-11-14 01:08:46.860 ,6,1,4.,24.0,0.,24.0,0.,24.0,0.,24.0
1980-11-14 01:09:10.860 ,6,0,0.,24.0,0.,24.0,0.,24.0,0.,24.0
1980-11-14 01:09:34.860 ,5,1,0.,24.0,0.,24.0,0.,24.0,0.,24.0
1980-11-14 01:09:58.860 ,5,0,0.,24.0,0.,24.0,0.,24.0,0.,24.0
1980-11-14 01:10:22.860 ,4,1,0.,24.0,0.,24.0,0.,24.0,0.,24.0
1980-11-14 01:10:46.860 ,4,0,0.,24.0,0.,24.0,0.,24.0,0.,24.0
1980-11-14 01:11:10.860 ,3,1,0.,24.0,0.,24.0,0.,24.0,0.,24.0
1980-11-14 01:11:34.860 ,3,0,0.,24.0,0.,24.0,0.,24.0,0.,24.0
1980-11-14 01:11:58.860 ,2,1,0.,24.0,0.,24.0,0.,24.0,0.,24.0
1980-11-14 01:12:22.860 ,2,0,0.,24.0,0.,24.0,0.,24.0,0.,24.0
1980-11-14 01:12:46.860 ,1,1,0.,24.0,0.,24.0,0.,24.0,0.,24.0
1980-11-14 01:13:10.860 ,1,0,0.,24.0,0.,24.0,0.,24.0,0.,24.0
1980-11-14 01:13:34.860 ,0,1,0.,24.0,0.,24.0,0.,24.0,0.,24.0
1980-11-14 01:13:58.860 ,0,0,0.,24.0,0.,24.0,0.,24.0,0.,24.0
1980-11-14 01:14:22.860 ,0,1,0.,24.0,0.,24.0,0.,24.0,0.,24.0
1980-11-14 01:14:46.860 ,0,0,0.,24.0,0.,24.0,0.,24.0,0.,24.0
1980-11-14 01:15:10.860 ,1,1,0.,24.0,0.,24.0,0.,24.0,0.,24.0
1980-11-14 01:15:34.860 ,1,0,0.,24.0,0.,24.0,0.,24.0,0.,24.0
1980-11-14 01:15:58.860 ,2,1,0.,24.0,0.,24.0,0.,24.0,0.,24.0
1980-11-14 01:16:22.860 ,2,0,0.,24.0,0.,24.0,0.,24.0,0.,24.0
1980-11-14 01:16:46.860 ,3,1,0.,24.0,0.,24.0,0.,24.0,0.,24.0
1980-11-14 01:17:10.860 ,3,0,0.,24.0,0.,24.0,0.,24.0,0.,24.0
1980-11-14 01:17:34.860 ,4,1,0.,24.0,0.,24.0,0.,24.0,0.,24.0
1980-11-14 01:17:58.860 ,4,0,0.,24.0,0.,24.0,0.,24.0,0.,24.0
1980-11-14 01:18:22.860 ,5,1,0.,24.0,0.,24.0,0.,24.0,0.,24.0
1980-11-14 01:18:46.860 ,5,0,0.,24.0,0.,24.0,0.,24.0,0.,24.0
1980-11-14 01:19:10.860 ,6,1,0.,24.0,0.,24.0,0.,24.0,0.,24.0
1980-11-14 01:19:34.860 ,0,0,0.,24.0,0.,24.0,0.,24.0,0.,24.0
1980-11-14 01:21:02.460 ,0,0,,0,,0,,0,,0
1980-11-14 01:21:10.860 ,0,0,12.,24.0,0.,24.0,0.,24.0,0.,24.0
1980-11-14 01:21:34.860 ,6,1,6.,24.0,0.,24.0,0.,24.0,0.,24.0
1980-11-14 01:21:58.860 ,6,0,0.,24.0,0.,24.0,0.,24.0,0.,24.0
1980-11-14 01:22:22.860 ,5,1,0.,24.0,0.,24.0,0.,24.0,0.,24.0
1980-11-14 01:22:46.860 ,5,0,0.,24.0,0.,24.0,0.,24.0,0.,24.0
1980-11-14 01:23:10.860 ,4,1,0.,24.0,0.,24.0,0.,24.0,0.,24.0
1980-11-14 01:23:34.860 ,4,0,0.,24.0,0.,24.0,0.,24.0,0.,24.0
1980-11-14 01:23:58.860 ,3,1,0.,24.0,0.,24.0,0.,24.0,0.,24.0
1980-11-14 01:24:22.860 ,3,0,0.,24.0,0.,24.0,0.,24.0,0.,24.0
1980-11-14 01:24:46.860 ,2,1,0.,24.0,0.,24.0,0.,24.0,0.,24.0
1980-11-14 01:25:10.860 ,2,0,0.,24.0,0.,24.0,0.,24.0,0.,24.0
1980-11-14 01:25:34.860 ,1,1,0.,24.0,0.,24.0,0.,24.0,0.,24.0
1980-11-14 01:25:58.860 ,1,0,0.,24.0,0.,24.0,0.,24.0,0.,24.0
1980-11-14 01:26:22.860 ,0,1,0.,24.0,0.,24.0,0.,24.0,0.,24.0
1980-11-14 01:26:46.860 ,0,0,0.,24.0,0.,24.0,0.,24.0,0.,24.0
1980-11-14 01:27:10.860 ,0,1,0.,24.0,0.,24.0,0.,24.0,0.,24.0
1980-11-14 01:27:34.860 ,0,0,0.,24.0,0.,24.0,0.,24.0,0.,24.0
1980-11-14 01:27:58.860 ,1,1,0.,24.0,0.,24.0,0.,24.0,0.,24.0
1980-11-14 01:28:22.860 ,1,0,0.,24.0,0.,24.0,0.,24.0,0.,24.0
1980-11-14 01:28:46.860 ,2,1,0.,24.0,0.,24.0,0.,24.0,0.,24.0
1980-11-14 01:29:10.860 ,2,0,0.,24.0,0.,24.0,0.,24.0,0.,24.0
1980-11-14 01:29:34.860 ,3,1,0.,24.0,0.,24.0,0.,24.0,0.,24.0
1980-11-14 01:29:58.860 ,3,0,0.,24.0,0.,24.0,0.,24.0,0.,24.0
1980-11-14 01:30:22.860 ,4,1,0.,24.0,0.,24.0,0.,24.0,0.,24.0
1980-11-14 01:30:46.860 ,4,0,1.,24.0,0.,24.0,0.,24.0,0.,24.0
1980-11-14 01:31:10.860 ,5,1,1.,24.0,0.,24.0,0.,24.0,0.,24.0
1980-11-14 01:31:34.860 ,5,0,0.,24.0,1.,24.0,0.,24.0,0.,24.0
1980-11-14 01:31:58.860 ,6,1,0.,24.0,0.,24.0,0.,24.0,0.,24.0
1980-11-14 01:32:22.860 ,6,0,0.,24.0,0.,24.0,0.,24.0,0.,24.0
1980-11-14 01:32:46.860 ,7,1,1.,24.0,0.,24.0,0.,24.0,0.,24.0
1980-11-14 01:33:10.860 ,7,0,9.,24.0,0.,24.0,0.,24.0,0.,24.0
1980-11-14 01:33:34.860 ,7,1,13.,24.0,0.,24.0,0.,24.0,0.,24.0
1980-11-14 01:33:58.860 ,7,0,13.,24.0,1.,24.0,0.,24.0,0.,24.0
1980-11-14 01:34:22.860 ,0,0,11.,24.0,0.,24.0,0.,24.0,0.,24.0
1980-11-14 01:34:46.860 ,0,0,0.,24.0,0.,24.0,0.,24.0,0.,24.0
1980-11-14 01:35:10.860 ,5,1,0.,24.0,0.,24.0,0.,24.0,0.,24.0
1980-11-14 01:35:34.860 ,5,0,0.,24.0,0.,24.0,0.,24.0,0.,24.0
1980-11-14 01:35:58.860 ,4,1,0.,24.0,0.,24.0,0.,24.0,0.,24.0
1980-11-14 01:36:22.860 ,4,0,0.,24.0,0.,24.0,0.,24.0,0.,24.0
1980-11-14 01:36:46.860 ,3,1,0.,24.0,0.,24.0,0.,24.0,0.,24.0
1980-11-14 01:37:10.860 ,3,0,0.,24.0,0.,24.0,0.,24.0,0.,24.0
1980-11-14 01:38:22.860 ,0,0,0.,24.0,0.,24.0,0.,24.0,0.,24.0
1980-11-14 01:38:46.860 ,0,0,0.,24.0,0.,24.0,0.,24.0,0.,24.0
1980-11-14 01:39:10.860 ,0,1,0.,24.0,0.,24.0,0.,24.0,0.,24.0
1980-11-14 01:39:34.860 ,0,0,0.,24.0,1.,24.0,0.,24.0,0.,24.0
1980-11-14 01:39:58.860 ,0,1,0.,24.0,0.,24.0,0.,24.0,0.,24.0
1980-11-14 01:40:22.860 ,0,0,0.,24.0,0.,24.0,0.,24.0,0.,24.0
1980-11-14 01:40:46.860 ,1,1,0.,24.0,0.,24.0,0.,24.0,0.,24.0
1980-11-14 01:41:10.860 ,1,0,0.,24.0,0.,24.0,0.,24.0,0.,24.0
1980-11-14 01:41:34.860 ,2,1,0.,24.0,0.,24.0,0.,24.0,0.,24.0
1980-11-14 01:41:58.860 ,2,0,0.,24.0,0.,24.0,0.,24.0,0.,24.0
1980-11-14 01:42:22.860 ,3,1,0.,24.0,0.,24.0,0.,24.0,0.,24.0
1980-11-14 01:42:46.860 ,3,0,0.,24.0,0.,24.0,0.,24.0,0.,24.0
1980-11-14 01:43:10.860 ,4,1,0.,24.0,0.,24.0,0.,24.0,0.,24.0
1980-11-14 01:43:34.860 ,4,0,0.,24.0,0.,24.0,0.,24.0,0.,24.0
1980-11-14 01:43:58.860 ,5,1,0.,24.0,0.,24.0,0.,24.0,0.,24.0
1980-11-14 01:44:22.860 ,5,0,0.,24.0,0.,24.0,0.,24.0,0.,24.0
1980-11-14 01:44:46.860 ,6,1,0.,24.0,0.,24.0,0.,24.0,0.,24.0
1980-11-14 01:45:10.860 ,6,0,0.,24.0,0.,24.0,0.,24.0,0.,24.0
1980-11-14 01:45:34.860 ,7,1,6.,24.0,0.,24.0,0.,24.0,0.,24.0
1980-11-14 01:45:58.860 ,7,0,11.,24.0,0.,24.0,0.,24.0,0.,24.0
1980-11-14 01:46:22.860 ,7,1,10.,24.0,0.,24.0,0.,24.0,0.,24.0
1980-11-14 01:46:46.860 ,7,0,9.,24.0,0.,24.0,0.,24.0,0.,24.0
1980-11-14 01:47:10.860 ,6,1,7.,24.0,0.,24.0,0.,24.0,0.,24.0
1980-11-14 01:47:34.860 ,6,0,0.,24.0,0.,24.0,0.,24.0,0.,24.0
1980-11-14 01:47:58.860 ,5,1,0.,24.0,0.,24.0,0.,24.0,0.,24.0
1980-11-14 01:48:22.860 ,5,0,0.,24.0,0.,24.0,0.,24.0,0.,24.0
1980-11-14 01:48:46.860 ,4,1,0.,24.0,0.,24.0,0.,24.0,0.,24.0
1980-11-14 01:49:10.860 ,4,0,0.,24.0,0.,24.0,0.,24.0,0.,24.0
1980-11-14 01:49:34.860 ,3,1,0.,24.0,0.,24.0,0.,24.0,0.,24.0
1980-11-14 01:49:58.860 ,3,0,0.,24.0,0.,24.0,0.,24.0,0.,24.0
1980-11-14 01:50:22.860 ,2,1,0.,24.0,0.,24.0,0.,24.0,0.,24.0
1980-11-14 01:50:46.860 ,2,0,0.,24.0,0.,24.0,0.,24.0,0.,24.0
1980-11-14 01:51:10.860 ,1,1,0.,24.0,0.,24.0,0.,24.0,0.,24.0
1980-11-14 01:51:34.860 ,1,0,0.,24.0,0.,24.0,0.,24.0,0.,24.0
1980-11-14 01:51:58.860 ,0,1,0.,24.0,0.,24.0,0.,24.0,0.,24.0
1980-11-14 01:52:22.860 ,0,0,0.,24.0,0.,24.0,0.,24.0,0.,24.0
1980-11-14 01:52:46.860 ,0,1,0.,24.0,0.,24.0,0.,24.0,0.,24.0
1980-11-14 01:53:10.860 ,0,0,0.,24.0,0.,24.0,0.,24.0,0.,24.0
1980-11-14 01:53:34.860 ,1,1,0.,24.0,0.,24.0,0.,24.0,0.,24.0
1980-11-14 01:53:58.860 ,1,0,0.,24.0,0.,24.0,0.,24.0,0.,24.0
1980-11-14 01:54:22.860 ,2,1,0.,24.0,0.,24.0,0.,24.0,0.,24.0
1980-11-14 01:54:46.860 ,2,0,0.,24.0,0.,24.0,0.,24.0,0.,24.0
1980-11-14 01:55:10.860 ,3,1,0.,24.0,0.,24.0,0.,24.0,0.,24.0
1980-11-14 01:55:34.860 ,3,0,0.,24.0,0.,24.0,0.,24.0,0.,24.0
1980-11-14 01:55:58.860 ,4,1,0.,24.0,0.,24.0,0.,24.0,0.,24.0
1980-11-14 01:56:22.860 ,4,0,0.,24.0,0.,24.0,0.,24.0,0.,24.0
1980-11-14 01:56:46.860 ,5,1,0.,24.0,0.,24.0,0.,24.0,0.,24.0
1980-11-14 01:57:10.860 ,5,0,0.,24.0,0.,24.0,0.,24.0,0.,24.0
1980-11-14 01:57:34.860 ,6,1,0.,24.0,0.,24.0,0.,24.0,0.,24.0
1980-11-14 01:57:58.860 ,6,0,0.,24.0,0.,24.0,0.,24.0,0.,24.0
1980-11-14 01:58:22.860 ,7,1,4.,24.0,0.,24.0,0.,24.0,0.,24.0
1980-11-14 01:58:46.860 ,7,0,11.,24.0,0.,24.0,0.,24.0,0.,24.0
1980-11-14 01:59:10.860 ,7,1,16.,24.0,0.,24.0,0.,24.0,0.,24.0
1980-11-14 01:59:34.860 ,7,0,8.,24.0,0.,24.0,0.,24.0,0.,24.0
1980-11-14 01:59:58.860 ,6,1,10.,24.0,0.,24.0,0.,24.0,0.,24.0
1980-11-14 02:00:22.860 ,6,0,0.,24.0,0.,24.0,0.,24.0,0.,24.0
1980-11-14 02:00:46.860 ,5,1,0.,24.0,0.,24.0,0.,24.0,0.,24.0
1980-11-14 02:01:10.860 ,5,0,0.,24.0,0.,24.0,0.,24.0,0.,24.0
1980-11-14 02:01:34.860 ,4,1,0.,24.0,0.,24.0,0.,24.0,0.,24.0
1980-11-14 02:01:58.860 ,4,0,0.,24.0,0.,24.0,0.,24.0,0.,24.0
1980-11-14 02:02:22.860 ,3,1,0.,24.0,0.,24.0,0.,24.0,0.,24.0
1980-11-14 02:02:46.860 ,3,0,0.,24.0,0.,24.0,0.,24.0,0.,24.0
1980-11-14 02:03:10.860 ,2,1,0.,24.0,0.,24.0,0.,24.0,0.,24.0
1980-11-14 02:03:34.860 ,2,0,0.,24.0,1.,24.0,0.,24.0,0.,24.0
1980-11-14 02:03:58.860 ,1,1,0.,24.0,0.,24.0,0.,24.0,0.,24.0
1980-11-14 02:04:22.860 ,1,0,0.,24.0,0.,24.0,0.,24.0,0.,24.0
1980-11-14 02:04:46.860 ,0,1,0.,24.0,0.,24.0,0.,24.0,0.,24.0
1980-11-14 02:05:10.860 ,0,0,0.,24.0,0.,24.0,0.,24.0,0.,24.0
1980-11-14 02:05:34.860 ,0,1,0.,24.0,0.,24.0,0.,24.0,0.,24.0
1980-11-14 02:05:58.860 ,0,0,0.,24.0,0.,24.0,0.,24.0,0.,24.0
1980-11-14 02:06:22.860 ,1,1,0.,24.0,0.,24.0,0.,24.0,0.,24.0
1980-11-14 02:06:46.860 ,1,0,0.,24.0,0.,24.0,0.,24.0,0.,24.0
1980-11-14 02:07:10.860 ,2,1,0.,24.0,0.,24.0,0.,24.0,0.,24.0
1980-11-14 02:07:34.860 ,2,0,0.,24.0,0.,24.0,0.,24.0,0.,24.0
1980-11-14 02:07:58.860 ,3,1,0.,24.0,0.,24.0,0.,24.0,0.,24.0
1980-11-14 02:08:22.860 ,3,0,0.,24.0,0.,24.0,0.,24.0,0.,24.0
1980-11-14 02:08:46.860 ,4,1,0.,24.0,0.,24.0,0.,24.0,0.,24.0
1980-11-14 02:09:10.860 ,4,0,0.,24.0,0.,24.0,0.,24.0,0.,24.0
1980-11-14 02:09:34.860 ,5,1,0.,24.0,0.,24.0,0.,24.0,0.,24.0
1980-11-14 02:09:58.860 ,5,0,0.,24.0,0.,24.0,0.,24.0,0.,24.0
1980-11-14 02:10:22.860 ,6,1,0.,24.0,0.,24.0,0.,24.0,0.,24.0
1980-11-14 02:10:46.860 ,6,0,0.,24.0,0.,24.0,0.,24.0,0.,24.0
1980-11-14 02:11:10.860 ,7,1,1.,24.0,0.,24.0,0.,24.0,0.,24.0
1980-11-14 02:11:34.860 ,7,0,14.,24.0,0.,24.0,0.,24.0,0.,24.0
1980-11-14 02:11:58.860 ,7,1,8.,24.0,1.,24.0,0.,24.0,0.,24.0
1980-11-14 02:12:22.860 ,7,0,8.,24.0,0.,24.0,0.,24.0,0.,24.0
1980-11-14 02:12:46.860 ,6,1,9.,24.0,0.,24.0,0.,24.0,0.,24.0
1980-11-14 02:13:10.860 ,6,0,0.,24.0,0.,24.0,0.,24.0,0.,24.0
1980-11-14 02:13:34.860 ,5,1,0.,24.0,0.,24.0,0.,24.0,0.,24.0
1980-11-14 02:13:58.860 ,5,0,0.,24.0,0.,24.0,0.,24.0,0.,24.0
1980-11-14 02:14:22.860 ,4,1,0.,24.0,0.,24.0,0.,24.0,0.,24.0
1980-11-14 02:14:46.860 ,4,0,0.,24.0,0.,24.0,0.,24.0,0.,24.0
1980-11-14 02:15:10.860 ,3,1,0.,24.0,0.,24.0,0.,24.0,0.,24.0
1980-11-14 02:15:34.860 ,3,0,0.,24.0,0.,24.0,0.,24.0,0.,24.0
1980-11-14 02:15:58.860 ,2,1,0.,24.0,0.,24.0,0.,24.0,0.,24.0
1980-11-14 02:16:22.860 ,2,0,0.,24.0,0.,24.0,0.,24.0,0.,24.0
1980-11-14 02:16:46.860 ,1,1,0.,24.0,0.,24.0,0.,24.0,0.,24.0
1980-11-14 02:17:10.860 ,1,0,0.,24.0,0.,24.0,0.,24.0,0.,24.0
1980-11-14 02:17:34.860 ,0,1,0.,24.0,0.,24.0,0.,24.0,0.,24.0
1980-11-14 02:17:58.860 ,0,0,0.,24.0,0.,24.0,0.,24.0,0.,24.0
1980-11-14 02:18:22.860 ,0,1,0.,24.0,0.,24.0,0.,24.0,0.,24.0
1980-11-14 02:18:46.860 ,0,0,0.,24.0,0.,24.0,0.,24.0,0.,24.0
1980-11-14 02:19:10.860 ,1,1,0.,24.0,0.,24.0,0.,24.0,0.,24.0
1980-11-14 02:19:34.860 ,1,0,0.,24.0,0.,24.0,0.,24.0,0.,24.0
1980-11-14 02:19:58.860 ,2,1,0.,24.0,0.,24.0,0.,24.0,0.,24.0
1980-11-14 02:20:22.860 ,2,0,0.,24.0,0.,24.0,0.,24.0,0.,24.0
1980-11-14 02:20:46.860 ,3,1,0.,24.0,0.,24.0,0.,24.0,0.,24.0
1980-11-14 02:21:10.860 ,3,0,0.,24.0,1.,24.0,0.,24.0,0.,24.0
1980-11-14 02:21:34.860 ,4,1,0.,24.0,0.,24.0,0.,24.0,0.,24.0
1980-11-14 02:21:58.860 ,4,0,0.,24.0,0.,24.0,0.,24.0,0.,24.0
1980-11-14 02:22:22.860 ,5,1,0.,24.0,0.,24.0,0.,24.0,0.,24.0
1980-11-14 02:22:46.860 ,5,0,0.,24.0,0.,24.0,0.,24.0,0.,24.0
1980-11-14 02:23:10.860 ,6,1,1.,24.0,0.,24.0,0.,24.0,0.,24.0
1980-11-14 02:23:34.860 ,6,0,0.,24.0,0.,24.0,0.,24.0,0.,24.0
1980-11-14 02:23:58.860 ,7,1,1.,24.0,0.,24.0,0.,24.0,0.,24.0
1980-11-14 02:24:22.860 ,7,0,10.,24.0,0.,24.0,0.,24.0,0.,24.0
1980-11-14 02:24:46.860 ,7,1,8.,24.0,0.,24.0,0.,24.0,0.,24.0
1980-11-14 02:25:10.860 ,7,0,11.,24.0,0.,24.0,0.,24.0,0.,24.0
1980-11-14 02:25:34.860 ,6,1,10.,24.0,0.,24.0,0.,24.0,0.,24.0
1980-11-14 02:25:58.860 ,6,0,0.,24.0,0.,24.0,0.,24.0,0.,24.0
1980-11-14 02:26:22.860 ,5,1,0.,24.0,0.,24.0,0.,24.0,0.,24.0
1980-11-14 02:26:46.860 ,5,0,0.,24.0,0.,24.0,0.,24.0,0.,24.0
1980-11-14 02:27:10.860 ,4,1,0.,24.0,0.,24.0,0.,24.0,0.,24.0
1980-11-14 02:27:34.860 ,4,0,0.,24.0,0.,24.0,0.,24.0,0.,24.0
1980-11-14 02:27:58.860 ,3,1,0.,24.0,0.,24.0,0.,24.0,0.,24.0
1980-11-14 02:28:22.860 ,3,0,0.,24.0,0.,24.0,0.,24.0,0.,24.0
1980-11-14 02:28:46.860 ,2,1,0.,24.0,0.,24.0,0.,24.0,0.,24.0
1980-11-14 02:29:10.860 ,2,0,0.,24.0,0.,24.0,0.,24.0,0.,24.0
1980-11-14 02:29:34.860 ,1,1,0.,24.0,0.,24.0,0.,24.0,0.,24.0
1980-11-14 02:29:58.860 ,1,0,0.,24.0,0.,24.0,0.,24.0,0.,24.0
1980-11-14 02:30:22.860 ,0,1,0.,24.0,0.,24.0,0.,24.0,0.,24.0
1980-11-14 02:30:46.860 ,0,0,0.,24.0,0.,24.0,0.,24.0,0.,24.0
1980-11-14 02:31:10.860 ,0,1,0.,24.0,0.,24.0,0.,24.0,0.,24.0
1980-11-14 02:31:34.860 ,0,0,0.,24.0,0.,24.0,0.,24.0,0.,24.0
1980-11-14 02:31:58.860 ,1,1,0.,24.0,0.,24.0,0.,24.0,0.,24.0
1980-11-14 02:32:22.860 ,1,0,0.,24.0,0.,24.0,0.,24.0,0.,24.0
1980-11-14 02:32:46.860 ,2,1,0.,24.0,0.,24.0,0.,24.0,0.,24.0
1980-11-14 02:33:10.860 ,2,0,0.,24.0,0.,24.0,0.,24.0,0.,24.0
1980-11-14 02:33:34.860 ,3,1,0.,24.0,0.,24.0,0.,24.0,0.,24.0
1980-11-14 02:33:58.860 ,3,0,0.,24.0,0.,24.0,0.,24.0,0.,24.0
1980-11-14 02:34:22.860 ,4,1,0.,24.0,0.,24.0,0.,24.0,0.,24.0
1980-11-14 02:34:46.860 ,4,0,1.,24.0,0.,24.0,0.,24.0,0.,24.0
1980-11-14 02:35:10.860 ,5,1,0.,24.0,0.,24.0,0.,24.0,0.,24.0
1980-11-14 02:35:34.860 ,5,0,0.,24.0,0.,24.0,0.,24.0,0.,24.0
1980-11-14 02:35:58.860 ,6,1,0.,24.0,0.,24.0,0.,24.0,0.,24.0